Weather reports worldwide

Advertisment
Cassley, United Kingdom (99003): temperature & dewpoint: 18.08.2019 06:00:00 - 24.08.2019 06:00:00 (BST)Cassley, United Kingdom (99003): precipitation: 18.08.2019 06:00:00 - 24.08.2019 06:00:00 (BST)
Date & Time tt [°C] td [°C] rr [mm]
24.08.2019 06:00:00 14,4 13,4 0,0
24.08.2019 05:00:00 13,9 12,9 0,0
24.08.2019 04:00:00 14,2 13,5 0,0
24.08.2019 03:00:00 14,3 13,3 0,0
24.08.2019 02:00:00 14,3 12,6 0,0
24.08.2019 01:00:00 14,8 12,1 0,0
24.08.2019 00:00:00 14,7 11,5 0,0
23.08.2019 23:00:00 14,5 11,3 0,0
23.08.2019 22:00:00 14,9 11,3 0,0
23.08.2019 21:00:00 15,1 11,6 0,0
23.08.2019 20:00:00 15,7 11,8 0,0
23.08.2019 19:00:00 17,0 10,6 0,0
23.08.2019 18:00:00 17,8 10,7 0,0
23.08.2019 17:00:00 18,5 11,3 0,0
23.08.2019 16:00:00 18,3 11,5 0,0
23.08.2019 15:00:00 17,9 10,8 0,0
23.08.2019 14:00:00 17,9 10,8 0,0
23.08.2019 13:00:00 17,8 12,6 0,0
23.08.2019 12:00:00 17,2 12,6 0,0
23.08.2019 11:00:00 16,5 13,6 0,2
23.08.2019 10:00:00 15,6 13,8 2,2
23.08.2019 09:00:00 14,9 14,0 2,4
23.08.2019 08:00:00 15,4 13,5 3,0
23.08.2019 07:00:00 15,0 14,2 1,6
23.08.2019 06:00:00 12,7 12,6 3,0
23.08.2019 05:00:00 12,0 11,9 1,0
23.08.2019 04:00:00 12,0 11,4 0,6
23.08.2019 03:00:00 12,3 11,0 0,2
23.08.2019 02:00:00 13,2 9,8 0,0
23.08.2019 01:00:00 13,5 10,2 0,0
23.08.2019 00:00:00 13,5 9,2 0,0
22.08.2019 23:00:00 13,5 9,7 0,0
22.08.2019 22:00:00 13,7 9,3 0,0
22.08.2019 21:00:00 13,6 9,2 0,0
22.08.2019 20:00:00 13,9 9,1 0,0
22.08.2019 19:00:00 13,6 10,3 0,0
22.08.2019 18:00:00 14,6 9,7 1,0
22.08.2019 17:00:00 14,8 10,2 0,0
22.08.2019 16:00:00 15,4 10,0 0,8
22.08.2019 15:00:00 14,8 11,6 0,2
22.08.2019 14:00:00 16,9 9,2 0,0
22.08.2019 13:00:00 16,0 9,6 0,0
22.08.2019 12:00:00 15,0 10,2 0,0
22.08.2019 11:00:00 14,2 10,6 0,0
22.08.2019 10:00:00 12,4 10,7 0,2
22.08.2019 09:00:00 12,1 10,0 0,0
22.08.2019 08:00:00 12,2 10,0 0,0
22.08.2019 07:00:00 10,4 9,0 0,0
22.08.2019 06:00:00 10,0 8,1 0,0
22.08.2019 05:00:00 9,4 7,7 0,0
22.08.2019 04:00:00 10,1 8,2 0,2
22.08.2019 03:00:00 10,4 9,0 0,2
22.08.2019 02:00:00 10,8 9,5 0,2
22.08.2019 01:00:00 10,0 7,8 0,0
22.08.2019 00:00:00 12,9 7,8 0,0
21.08.2019 23:00:00 12,5 8,3 0,0
21.08.2019 22:00:00 11,8 8,7 0,0
21.08.2019 21:00:00 12,3 10,7 0,8
21.08.2019 20:00:00 13,2 11,6 0,2
21.08.2019 19:00:00 13,5 11,4 0,6
21.08.2019 18:00:00 14,9 10,4 0,0
21.08.2019 17:00:00 14,4 11,3 0,4
21.08.2019 16:00:00 14,6 11,3 0,2
21.08.2019 15:00:00 15,7 9,3 0,0
21.08.2019 14:00:00 15,2 10,9 0,0
21.08.2019 13:00:00 17,3 10,9 0,0
21.08.2019 12:00:00 18,0 10,7 0,0
21.08.2019 11:00:00 16,7 11,2 0,0
21.08.2019 10:00:00 14,2 11,8 0,0
21.08.2019 09:00:00 11,5 10,5 0,0
21.08.2019 08:00:00 9,5 9,0 0,0
21.08.2019 07:00:00 9,5 9,1 0,2
21.08.2019 06:00:00 9,0 8,7 0,0
21.08.2019 05:00:00 8,4 8,2 0,0
21.08.2019 04:00:00 7,8 7,5 0,0
21.08.2019 03:00:00 8,0 7,6 0,0
21.08.2019 02:00:00 7,8 7,5 0,0
21.08.2019 01:00:00 7,6 7,0 0,0
21.08.2019 00:00:00 8,4 7,2 0,0
20.08.2019 23:00:00 10,6 8,2 0,0
20.08.2019 22:00:00 11,1 9,1 0,0
20.08.2019 21:00:00 12,6 8,6 0,0
20.08.2019 20:00:00 14,1 9,1 0,0
20.08.2019 19:00:00 14,8 8,7 0,0
20.08.2019 18:00:00 15,7 7,2 0,0
20.08.2019 17:00:00 15,4 6,6 0,0
20.08.2019 16:00:00 16,4 7,5 0,0
20.08.2019 15:00:00 14,9 6,4 0,0
20.08.2019 14:00:00 14,0 6,8 0,0
20.08.2019 13:00:00 13,3 5,8 0,0
20.08.2019 12:00:00 13,0 7,5 0,0
20.08.2019 11:00:00 12,6 6,5 0,0
20.08.2019 10:00:00 12,2 7,6 0,0
20.08.2019 09:00:00 11,2 6,6 0,0
20.08.2019 08:00:00 10,3 7,3 0,0
20.08.2019 07:00:00 8,9 6,5 0,0
20.08.2019 06:00:00 9,5 7,8 0,0
20.08.2019 05:00:00 9,7 7,5 0,0
20.08.2019 04:00:00 9,1 7,4 0,0
20.08.2019 03:00:00 9,5 7,2 0,0
20.08.2019 02:00:00 10,2 7,8 0,0
20.08.2019 01:00:00 10,4 7,7 0,0
20.08.2019 00:00:00 10,7 8,6 0,0
19.08.2019 23:00:00 10,3 8,5 0,0
19.08.2019 22:00:00 10,7 9,0 0,0
19.08.2019 21:00:00 10,8 8,9 0,0
19.08.2019 20:00:00 11,4 9,6 0,2
19.08.2019 19:00:00 11,7 10,5 0,0
19.08.2019 18:00:00 12,1 10,9 0,2
19.08.2019 17:00:00 12,7 11,1 0,6
19.08.2019 16:00:00 13,0 10,7 0,2
19.08.2019 15:00:00 12,8 11,0 0,0
19.08.2019 14:00:00 13,1 11,2 0,0
19.08.2019 13:00:00 13,3 12,2 0,2
19.08.2019 12:00:00 14,0 12,5 0,4
19.08.2019 11:00:00 13,2 11,4 0,8
19.08.2019 10:00:00 13,4 10,7 0,0
19.08.2019 09:00:00 12,8 10,1 0,0
19.08.2019 08:00:00 12,5 9,6 0,0
19.08.2019 07:00:00 11,9 10,0 0,0
19.08.2019 06:00:00 12,1 10,5 1,8
19.08.2019 05:00:00 12,5 10,5 0,0
19.08.2019 04:00:00 12,6 10,1 0,0
19.08.2019 03:00:00 12,6 10,8 0,4
19.08.2019 02:00:00 12,7 11,2 1,8
19.08.2019 01:00:00 12,8 11,2 0,2
19.08.2019 00:00:00 12,7 11,5 1,8
18.08.2019 23:00:00 12,7 11,3 0,6
18.08.2019 22:00:00 11,8 10,7 0,8
18.08.2019 21:00:00 11,9 10,5 0,2
18.08.2019 20:00:00 12,2 11,1 2,0
18.08.2019 19:00:00 13,1 11,4 0,0
18.08.2019 18:00:00 13,8 11,6 2,0
18.08.2019 17:00:00 13,5 11,5 0,2
18.08.2019 16:00:00 15,1 10,7 0,0
18.08.2019 15:00:00 15,5 10,6 0,0
18.08.2019 14:00:00 15,4 11,3 0,0
18.08.2019 13:00:00 16,2 11,1 0,0
18.08.2019 12:00:00 15,2 10,8 0,4
18.08.2019 11:00:00 15,7 10,5 0,0
18.08.2019 10:00:00 15,0 12,0 0,0
18.08.2019 09:00:00 13,1 11,0 0,0
18.08.2019 08:00:00 12,6 11,3 0,0
18.08.2019 07:00:00 11,0 10,1 0,0
18.08.2019 06:00:00 11,9 10,7 0,4

tt = temperature
td = dewpoint
rr = precipitation

Next stations